Content
SEND FEEDBACK

Daily
Averages
Monthly
Summary
United States of America

SAN SIMON, ARIZONA


Home > North America > United States > Arizona
Elevation: 1100 meters     Latitude: 32 16N     Longitude: 109 13W

WEATHER
 
SELECT A DAY
Number of Records: 62,863;   Date Range: 2/15/12 - 9/29/14
 
SHARE

PRINT THIS DATA

[ ← Previous Day ]
WEATHER ALMANAC - 31 JANUARY, 2013
[ Next Day → ]
[ °F ]   °C
Weather ElementAverageHighLow
Temperature4 °C13 °C (2:55 pm)-3 °C (6:55 am)
Dewpoint-3.1 °C0 °C (5:35 pm)-5 °C (12:35 am)
Humidity63.1 %86 % (6:55 am)33 % (2:55 pm)
Barometer1024 hPa1025.4 hPa (7:55 am)1022.4 hPa (5:35 pm)
Wind Speed7.4 km/h14.8 km/h (11:15 am)
Weather ElementAverage
Visibility16.1 km
Wind DirectionSSE (143.6 °)

Weather ElementTotal
Precipitation---
Heating Degree Days13.3 (Base 18.3)
Averaged from 66 records on 31 January, 2013
WEATHER CONDITIONS BREAKOUT
WIND DIRECTION BREAKOUT
WEATHER BY HOUR - 31 JANUARY, 2013
[ °F ]   °C
Local TimeTemperatureDewpointHumidityBarometerVisibilityWind DirectionWind SpeedGust SpeedPrecipitationEventsConditions
12:35 AM0 °C-5 °C69 %1024 hPa16.1 kmCalmClear
12:55 AM0 °C-4 °C75 %1024.4 hPa16.1 kmSE (140°)7.4 km/hClear
1:15 AM-1 °C-4 °C80 %1024.4 hPa16.1 kmCalmClear
1:35 AM-1 °C-4 °C80 %1024.7 hPa16.1 kmCalmClear
1:55 AM-2 °C-5 °C80 %1024.7 hPa16.1 kmCalmClear
2:15 AM-1 °C-4 °C80 %1024.7 hPa16.1 kmCalmClear
2:35 AM-1 °C-4 °C80 %1024.7 hPa16.1 kmWest (270°)5.6 km/hClear
2:55 AM-1 °C-4 °C80 %1024.7 hPa16.1 kmWNW (290°)7.4 km/hClear
3:15 AM-1 °C-4 °C80 %1024.4 hPa16.1 kmWest (280°)9.3 km/hClear
3:35 AM-1 °C-5 °C75 %1024.4 hPa16.1 kmWest (280°)11.1 km/hClear
3:55 AM-1 °C-5 °C75 %1024.4 hPa16.1 kmWest (270°)11.1 km/hClear
4:15 AM-1 °C-5 °C75 %1024.4 hPa16.1 kmWest (270°)11.1 km/hClear
4:35 AM-1 °C-5 °C75 %1024 hPa16.1 kmWest (280°)11.1 km/hClear
4:55 AM-1 °C-5 °C75 %1024 hPa16.1 kmWNW (290°)9.3 km/hClear
5:15 AM-2 °C-5 °C80 %1024 hPa16.1 kmCalmClear
5:35 AM-2 °C-5 °C80 %1024 hPa16.1 kmCalmClear
5:55 AM-2 °C-5 °C80 %1024 hPa16.1 kmWNW (290°)11.1 km/hClear
6:15 AM-1 °C-5 °C75 %1024.4 hPa16.1 kmWNW (290°)7.4 km/hClear
6:35 AM-2 °C-5 °C80 %1024.7 hPa16.1 kmCalmClear
6:55 AM-3 °C-5 °C86 %1024.4 hPa16.1 kmNorth (360°)5.6 km/hClear
7:15 AM-3 °C-5 °C86 %1024.7 hPa16.1 kmCalmClear
7:35 AM-3 °C-5 °C86 %1025.1 hPa16.1 kmSSE (150°)5.6 km/hClear
7:55 AM-1 °C-4 °C80 %1025.4 hPa16.1 kmSSE (150°)5.6 km/hClear
8:15 AM0 °C-3 °C80 %1025.4 hPa16.1 kmSSE (150°)9.3 km/hClear
8:35 AM1 °C-3 °C75 %1025.4 hPa16.1 kmSE (130°)9.3 km/hClear
8:55 AM1 °C-2 °C81 %1025.4 hPa16.1 kmESE (120°)7.4 km/hClear
9:15 AM2 °C-2 °C75 %1025.1 hPa16.1 kmESE (110°)9.3 km/hClear
9:35 AM2 °C-2 °C75 %1025.1 hPa16.1 kmSE (140°)9.3 km/hClear
9:55 AM3 °C-3 °C65 %1025.4 hPa16.1 kmSE (130°)11.1 km/hClear
10:15 AM5 °C-2 °C61 %1025.4 hPa16.1 kmSE (140°)9.3 km/hClear
10:35 AM6 °C-2 °C57 %1025.1 hPa16.1 kmSE (140°)11.1 km/hClear
10:55 AM7 °C-3 °C49 %1025.4 hPa16.1 kmSSE (150°)9.3 km/hClear
11:15 AM8 °C-3 °C46 %1025.4 hPa16.1 kmSE (140°)14.8 km/hClear
11:35 AM8 °C-3 °C46 %1025.4 hPa16.1 kmSE (140°)13 km/hClear
11:55 AM8 °C-3 °C46 %1024.7 hPa16.1 kmSSE (160°)13 km/hClear
12:15 PM9 °C-3 °C43 %1024.4 hPa16.1 kmSE (140°)11.1 km/hClear
12:35 PM10 °C-3 °C40 %1024.4 hPa16.1 kmSE (130°)9.3 km/hClear
12:55 PM10 °C-3 °C40 %1024 hPa16.1 kmSE (130°)11.1 km/hClear
1:15 PM11 °C-2 °C41 %1023.7 hPa16.1 kmSSE (150°)11.1 km/hClear
1:35 PM11 °C-3 °C38 %1023.4 hPa16.1 kmCalmClear
2:15 PM12 °C-3 °C35 %1023 hPa16.1 kmNorthClear
2:35 PM12 °C-3 °C35 %1023 hPa16.1 kmSSE (150°)9.3 km/hClear
2:55 PM13 °C-3 °C33 %1023 hPa16.1 kmCalmClear
3:15 PM13 °C-3 °C33 %1023 hPa16.1 kmSSE (150°)7.4 km/hClear
3:35 PM12 °C-3 °C35 %1023 hPa16.1 kmSSE (150°)9.3 km/hClear
3:55 PM12 °C-3 °C35 %1023 hPa16.1 kmSSE (160°)7.4 km/hClear
4:15 PM12 °C-3 °C35 %1022.7 hPa16.1 kmESE (120°)11.1 km/hClear
4:35 PM12 °C-3 °C35 %1022.7 hPa16.1 kmSE (130°)7.4 km/hClear
4:55 PM12 °C-2 °C38 %1022.7 hPa16.1 kmSE (140°)5.6 km/hClear
5:15 PM11 °C-1 °C44 %1022.7 hPa16.1 kmSSE (150°)7.4 km/hClear
5:35 PM10 °C0 °C50 %1022.4 hPa16.1 kmSE (140°)9.3 km/hClear
6:15 PM7 °C0 °C61 %1022.7 hPa16.1 kmSSE (160°)7.4 km/hClear
6:35 PM7 °C-1 °C57 %1022.7 hPa16.1 kmSSE (150°)5.6 km/hClear
7:15 PM6 °C-1 °C61 %1023 hPa16.1 kmCalmClear
7:35 PM5 °C-1 °C65 %1023.4 hPa16.1 kmSSE (160°)7.4 km/hClear
7:55 PM5 °C-1 °C65 %1023.7 hPa16.1 kmSouth (190°)7.4 km/hClear
8:15 PM5 °C-1 °C65 %1024 hPa16.1 kmSSE (160°)7.4 km/hClear
8:35 PM5 °C-1 °C65 %1024 hPa16.1 kmSSE (150°)7.4 km/hClear
8:55 PM5 °C-2 °C61 %1024.4 hPa16.1 kmSouth (170°)7.4 km/hClear
9:15 PM4 °C-2 °C65 %1024.4 hPa16.1 kmSSE (160°)5.6 km/hClear
9:35 PM3 °C-2 °C70 %1024 hPa16.1 kmSE (140°)5.6 km/hClear
10:15 PM2 °C-2 °C75 %1023.4 hPa16.1 kmSSE (160°)7.4 km/hClear
10:35 PM2 °C-2 °C75 %1023.7 hPa16.1 kmSouth (190°)14.8 km/hClear
11:15 PM2 °C-3 °C70 %1023.7 hPa16.1 kmSouth (190°)11.1 km/hClear
11:35 PM3 °C-3 °C65 %1024 hPa16.1 kmSSW (200°)11.1 km/hClear
11:55 PM3 °C-3 °C65 %1024 hPa16.1 kmSSW (200°)13 km/hClear
Hourly data recorded from KLSB, located 0 kilometers away from San Simon, Arizona







STORIES FROM OUR PARTNERS